SBI7520 UTAA-ZWWW

Flight info

Callsign SBI7520
Flight time N/A
Altitude 36000
Route UTAA N0440F370 URA29D URABA A117 LBA B376 MANAT L141 KAMUD A468 XKC B215 EPDAG EPD18A WW604 WW603 FF25 RW25 ZWWW
Aircraft B738/M-SDGIWZ/S

Departure

Time 2026-04-11 10:58
Airport Ashgabat International Airport (UTAA)

Arrival

Time N/A
Airport Ürümqi Tianshan International Airport (ZWWW)
Time Latitude Longitude Altitude Speed Heading
2026-04-11 10:44 37.96719 58.37340 699 ft 0 kts 127°
2026-04-11 10:55 37.96712 58.37357 699 ft 9 kts 113°
2026-04-11 10:56 37.96695 58.37461 699 ft 14 kts 58°
2026-04-11 10:56 37.96798 58.37530 699 ft 21 kts 349°
2026-04-11 10:56 37.96954 58.37469 699 ft 27 kts 342°
2026-04-11 10:56 37.97143 58.37335 699 ft 35 kts 328°
2026-04-11 10:57 37.97329 58.37279 699 ft 20 kts 314°
2026-04-11 10:57 37.97506 58.36915 699 ft 85 kts 299°
2026-04-11 10:57 37.97908 58.36013 699 ft 148 kts 299°
2026-04-11 10:57 37.98499 58.34679 768 ft 192 kts 300°
2026-04-11 10:58 37.99204 58.33120 1140 ft 212 kts 301°
2026-04-11 10:58 37.99910 58.31553 2062 ft 204 kts 298°
2026-04-11 10:58 38.00615 58.29894 2419 ft 227 kts 298°
2026-04-11 10:58 38.01413 58.28064 2748 ft 250 kts 298°
2026-04-11 10:59 38.02326 58.26119 3311 ft 265 kts 308°
2026-04-11 10:59 38.03816 58.24684 3806 ft 279 kts 342°
2026-04-11 10:59 38.05700 58.24280 4691 ft 278 kts 356°
2026-04-11 10:59 38.07659 58.24312 5249 ft 289 kts 15°
2026-04-11 11:00 38.09396 58.25473 6008 ft 287 kts 47°
2026-04-11 11:00 38.10587 58.27467 6803 ft 285 kts 61°
2026-04-11 11:00 38.11355 58.29776 7367 ft 291 kts 79°
2026-04-11 11:00 38.11674 58.32296 8143 ft 291 kts 86°
2026-04-11 11:01 38.11867 58.34853 8762 ft 297 kts 85°
2026-04-11 11:01 38.12120 58.37498 9439 ft 301 kts 84°
2026-04-11 11:01 38.12386 58.40107 10067 ft 305 kts 82°
2026-04-11 11:01 38.12675 58.42858 10434 ft 321 kts 82°
2026-04-11 11:02 38.12975 58.45753 10531 ft 343 kts 82°
2026-04-11 11:02 38.13297 58.48842 10742 ft 361 kts 82°
2026-04-11 11:02 38.13630 58.51990 11256 ft 367 kts 82°
2026-04-11 11:02 38.13973 58.55231 11757 ft 373 kts 83°
2026-04-11 11:03 38.14319 58.58491 12381 ft 374 kts 83°
2026-04-11 11:03 38.14670 58.61792 12909 ft 379 kts 83°
2026-04-11 11:03 38.15023 58.65107 13437 ft 382 kts 83°
2026-04-11 11:03 38.15380 58.68441 13961 ft 385 kts 83°
2026-04-11 11:04 38.15744 58.71842 14459 ft 388 kts 83°
2026-04-11 11:04 38.16106 58.75200 14939 ft 391 kts 83°
2026-04-11 11:04 38.16476 58.78630 15406 ft 394 kts 83°
2026-04-11 11:04 38.16855 58.82129 15869 ft 397 kts 83°
2026-04-11 11:05 38.17232 58.85607 16320 ft 400 kts 83°
2026-04-11 11:05 38.17611 58.89101 16743 ft 403 kts 83°
2026-04-11 11:05 38.17994 58.92615 17163 ft 406 kts 83°
2026-04-11 11:05 38.18383 58.96171 17580 ft 408 kts 82°
2026-04-11 11:06 38.18775 58.99758 17965 ft 411 kts 82°
2026-04-11 11:06 38.19171 59.03362 18358 ft 414 kts 82°
2026-04-11 11:06 38.19570 59.06987 18739 ft 416 kts 82°
2026-04-11 11:06 38.19971 59.10619 19102 ft 419 kts 82°
2026-04-11 11:07 38.20375 59.14280 19462 ft 421 kts 82°
2026-04-11 11:07 38.20785 59.17998 19817 ft 424 kts 82°
2026-04-11 11:07 38.21193 59.21690 20155 ft 426 kts 82°
2026-04-11 11:07 38.21610 59.25444 20482 ft 428 kts 82°
2026-04-11 11:08 38.22028 59.29196 20803 ft 431 kts 82°
2026-04-11 11:08 38.22522 59.32951 21107 ft 433 kts 77°
2026-04-11 11:08 38.23303 59.36654 21414 ft 435 kts 73°
2026-04-11 11:08 38.24151 59.40300 21732 ft 437 kts 73°
2026-04-11 11:09 38.24983 59.44029 22021 ft 439 kts 73°
2026-04-11 11:09 38.25803 59.47798 22315 ft 441 kts 73°
2026-04-11 11:09 38.26617 59.51535 22563 ft 444 kts 73°
2026-04-11 11:09 38.27443 59.55319 22866 ft 445 kts 73°
2026-04-11 11:10 38.28268 59.59114 23123 ft 447 kts 73°
2026-04-11 11:10 38.29097 59.62943 23392 ft 449 kts 73°
2026-04-11 11:10 38.29920 59.66750 23625 ft 451 kts 74°
2026-04-11 11:10 38.30754 59.70615 23853 ft 453 kts 74°
2026-04-11 11:11 38.31580 59.74453 24151 ft 453 kts 74°
2026-04-11 11:11 38.32413 59.78333 24361 ft 456 kts 74°
2026-04-11 11:11 38.33248 59.82231 24597 ft 457 kts 74°
2026-04-11 11:11 38.34082 59.86129 24848 ft 458 kts 74°
2026-04-11 11:12 38.34921 59.90055 25060 ft 460 kts 74°
2026-04-11 11:12 38.35757 59.93979 25270 ft 461 kts 74°
2026-04-11 11:12 38.36599 59.97934 25472 ft 463 kts 74°
2026-04-11 11:12 38.37438 60.01883 25694 ft 464 kts 74°
2026-04-11 11:13 38.38281 60.05860 25881 ft 466 kts 74°
2026-04-11 11:13 38.39116 60.09806 26054 ft 468 kts 74°
2026-04-11 11:13 38.39964 60.13820 26245 ft 469 kts 74°
2026-04-11 11:13 38.40813 60.17845 26455 ft 470 kts 74°
2026-04-11 11:14 38.41658 60.21862 26599 ft 472 kts 74°
2026-04-11 11:14 38.42509 60.25918 26800 ft 473 kts 74°
2026-04-11 11:14 38.43352 60.29959 27001 ft 474 kts 74°
2026-04-11 11:14 38.44195 60.34008 27143 ft 476 kts 74°
2026-04-11 11:15 38.45038 60.38080 27333 ft 476 kts 74°
2026-04-11 11:15 38.45887 60.42181 27492 ft 478 kts 74°
2026-04-11 11:15 38.46732 60.46242 27653 ft 479 kts 74°
2026-04-11 11:15 38.47589 60.50348 27825 ft 480 kts 73°
2026-04-11 11:16 38.48450 60.54465 27919 ft 482 kts 73°
2026-04-11 11:16 38.49310 60.58592 28137 ft 482 kts 73°
2026-04-11 11:16 38.50167 60.62717 28280 ft 483 kts 73°
2026-04-11 11:17 38.51893 60.71033 28542 ft 485 kts 75°
2026-04-11 11:17 38.52750 60.75194 28649 ft 487 kts 74°
2026-04-11 11:17 38.53604 60.79359 28752 ft 488 kts 74°
2026-04-11 11:17 38.54458 60.83551 28886 ft 489 kts 74°
2026-04-11 11:18 38.55306 60.87746 29032 ft 489 kts 74°
2026-04-11 11:18 38.56993 60.96133 29250 ft 491 kts 74°
2026-04-11 11:19 38.58710 61.04599 29438 ft 494 kts 74°
2026-04-11 11:19 38.60454 61.13121 29606 ft 497 kts 74°
2026-04-11 11:20 38.62162 61.21668 29793 ft 499 kts 74°
2026-04-11 11:20 38.63005 61.25921 29927 ft 499 kts 74°
2026-04-11 11:20 38.63859 61.30222 30042 ft 499 kts 74°
2026-04-11 11:20 38.64715 61.34513 30178 ft 499 kts 74°
2026-04-11 11:21 38.65559 61.38821 30316 ft 499 kts 76°
2026-04-11 11:21 38.66214 61.43195 30486 ft 499 kts 79°
2026-04-11 11:21 38.66724 61.47580 30638 ft 499 kts 80°
2026-04-11 11:22 38.67771 61.56305 30838 ft 500 kts 79°
2026-04-11 11:22 38.68333 61.60714 30939 ft 501 kts 79°
2026-04-11 11:22 38.68888 61.65109 31066 ft 500 kts 80°
2026-04-11 11:22 38.69433 61.69476 31267 ft 498 kts 80°
2026-04-11 11:23 38.69965 61.73803 31514 ft 495 kts 80°
2026-04-11 11:23 38.70490 61.78162 31694 ft 494 kts 80°
2026-04-11 11:23 38.71009 61.82486 31783 ft 494 kts 80°
2026-04-11 11:24 38.72069 61.91190 31962 ft 496 kts 80°
2026-04-11 11:24 38.73121 61.99853 32132 ft 497 kts 80°
2026-04-11 11:25 38.74183 62.08603 32330 ft 497 kts 80°
2026-04-11 11:25 38.74710 62.12983 32435 ft 497 kts 80°
2026-04-11 11:25 38.75234 62.17346 32536 ft 497 kts 80°
2026-04-11 11:26 38.76281 62.26094 32742 ft 497 kts 79°
2026-04-11 11:26 38.77323 62.34832 32930 ft 498 kts 80°
2026-04-11 11:26 38.77839 62.39188 33046 ft 497 kts 80°
2026-04-11 11:27 38.78350 62.43556 33140 ft 497 kts 80°
2026-04-11 11:27 38.78862 62.47934 33245 ft 497 kts 80°
2026-04-11 11:27 38.79369 62.52274 33367 ft 496 kts 80°
2026-04-11 11:28 38.80391 62.61039 33564 ft 496 kts 80°
2026-04-11 11:28 38.81399 62.69733 33771 ft 496 kts 81°
2026-04-11 11:29 38.82899 62.82820 34021 ft 495 kts 80°
2026-04-11 11:29 38.83396 62.87169 34131 ft 495 kts 81°
2026-04-11 11:29 38.83890 62.91515 34215 ft 494 kts 81°
2026-04-11 11:30 38.84877 63.00254 34385 ft 494 kts 81°
2026-04-11 11:30 38.85846 63.08943 34564 ft 494 kts 81°
2026-04-11 11:31 38.86813 63.17596 34762 ft 493 kts 81°
2026-04-11 11:31 38.87780 63.26326 34924 ft 493 kts 81°
2026-04-11 11:32 38.88729 63.34980 35079 ft 493 kts 80°
2026-04-11 11:32 38.89686 63.43708 35245 ft 493 kts 81°
2026-04-11 11:33 38.90601 63.52357 35401 ft 492 kts 81°
2026-04-11 11:33 38.92216 63.60833 35552 ft 489 kts 67°
2026-04-11 11:34 38.94589 63.68986 35720 ft 487 kts 68°
2026-04-11 11:34 38.96885 63.77138 35904 ft 486 kts 68°
2026-04-11 11:35 38.99231 63.85229 36040 ft 484 kts 67°
2026-04-11 11:35 39.01633 63.93270 36174 ft 484 kts 67°
2026-04-11 11:36 39.04019 64.01334 36305 ft 483 kts 67°
2026-04-11 11:36 39.06394 64.09419 36446 ft 482 kts 67°
2026-04-11 11:37 39.08722 64.17425 36583 ft 480 kts 66°
2026-04-11 11:37 39.11148 64.25387 36724 ft 479 kts 66°
2026-04-11 11:38 39.13592 64.33323 36861 ft 478 kts 66°
2026-04-11 11:38 39.16028 64.41254 36991 ft 477 kts 66°
2026-04-11 11:39 39.18426 64.49197 37155 ft 475 kts 66°
2026-04-11 11:39 39.20768 64.57122 37156 ft 477 kts 66°
2026-04-11 11:40 39.23172 64.65125 37156 ft 479 kts 66°
2026-04-11 11:40 39.25600 64.73114 37156 ft 479 kts 67°
2026-04-11 11:41 39.28007 64.81060 37157 ft 479 kts 67°
2026-04-11 11:41 39.30408 64.89102 37155 ft 479 kts 68°
2026-04-11 11:42 39.32734 64.97064 37155 ft 477 kts 68°
2026-04-11 11:42 39.35092 65.05060 37155 ft 476 kts 68°
2026-04-11 11:43 39.37455 65.13026 37155 ft 476 kts 68°
2026-04-11 11:43 39.39805 65.20988 37155 ft 476 kts 68°
2026-04-11 11:44 39.42155 65.28970 37155 ft 476 kts 68°
2026-04-11 11:44 39.44508 65.36987 37155 ft 476 kts 68°
2026-04-11 11:45 39.46844 65.44974 37154 ft 476 kts 68°
2026-04-11 11:45 39.49163 65.52924 37155 ft 476 kts 68°
2026-04-11 11:46 39.51499 65.60957 37155 ft 476 kts 68°
2026-04-11 11:46 39.53821 65.68968 37155 ft 476 kts 69°
2026-04-11 11:47 39.56137 65.76981 37155 ft 476 kts 69°
2026-04-11 11:47 39.58442 65.84981 37155 ft 476 kts 69°
2026-04-11 11:48 39.60747 65.93003 37155 ft 476 kts 69°
2026-04-11 11:48 39.63052 66.01047 37155 ft 476 kts 69°
2026-04-11 11:49 39.65349 66.09029 37155 ft 476 kts 69°
2026-04-11 11:49 39.67661 66.17086 37155 ft 477 kts 69°
2026-04-11 11:50 39.69961 66.25135 37155 ft 476 kts 69°
2026-04-11 11:50 39.72247 66.33155 37182 ft 476 kts 69°
2026-04-11 11:51 39.74558 66.41190 37208 ft 476 kts 66°
2026-04-11 11:51 39.77384 66.48974 37235 ft 476 kts 62°
2026-04-11 11:52 39.80246 66.56683 37235 ft 476 kts 63°
2026-04-11 11:52 39.83061 66.64414 37236 ft 475 kts 63°
2026-04-11 11:53 39.85897 66.72190 37236 ft 474 kts 64°
2026-04-11 11:53 39.88704 66.79927 37237 ft 475 kts 64°
2026-04-11 11:54 39.91497 66.87648 37236 ft 475 kts 64°
2026-04-11 11:54 39.94314 66.95457 37236 ft 475 kts 64°
2026-04-11 11:55 39.97097 67.03194 37236 ft 475 kts 64°
2026-04-11 11:55 39.99898 67.11002 37236 ft 476 kts 64°
2026-04-11 11:56 40.02682 67.18783 37236 ft 476 kts 64°
2026-04-11 11:56 40.05462 67.26573 37236 ft 476 kts 64°
2026-04-11 11:57 40.08246 67.34395 37236 ft 476 kts 64°
2026-04-11 11:57 40.11023 67.42221 37236 ft 476 kts 64°
2026-04-11 11:58 40.13808 67.50091 37236 ft 476 kts 64°
2026-04-11 11:58 40.16557 67.57876 37236 ft 476 kts 64°
2026-04-11 11:59 40.19332 67.65758 37227 ft 476 kts 64°
2026-04-11 11:59 40.22162 67.73553 37210 ft 476 kts 63°
2026-04-11 12:00 40.25001 67.81301 37194 ft 476 kts 63°
2026-04-11 12:00 40.27839 67.89113 37184 ft 476 kts 63°
2026-04-11 12:01 40.30673 67.96931 37182 ft 476 kts 63°
2026-04-11 12:01 40.33486 68.04714 37182 ft 476 kts 63°
2026-04-11 12:02 40.36338 68.12527 37151 ft 477 kts 63°
2026-04-11 12:02 40.37785 68.16488 36934 ft 478 kts 63°
2026-04-11 12:02 40.39190 68.20348 36934 ft 474 kts 63°
2026-04-11 12:03 40.42015 68.28130 36940 ft 474 kts 63°
2026-04-11 12:03 40.44844 68.35943 36939 ft 476 kts 63°
2026-04-11 12:04 40.47666 68.43759 36939 ft 476 kts 63°
2026-04-11 12:04 40.50493 68.51608 36939 ft 476 kts 63°
2026-04-11 12:05 40.53075 68.59605 36940 ft 476 kts 70°
2026-04-11 12:05 40.55179 68.67853 36939 ft 476 kts 70°
2026-04-11 12:06 40.57365 68.76055 36938 ft 477 kts 68°
2026-04-11 12:06 40.60116 68.83962 36939 ft 476 kts 62°
2026-04-11 12:07 40.63005 68.91775 36939 ft 476 kts 63°
2026-04-11 12:07 40.65826 68.99599 36939 ft 473 kts 62°
2026-04-11 12:08 40.68634 69.07369 36938 ft 469 kts 62°
2026-04-11 12:08 40.71399 69.15056 36938 ft 465 kts 61°
2026-04-11 12:09 40.74147 69.22745 36939 ft 464 kts 61°
2026-04-11 12:09 40.76902 69.30403 36939 ft 465 kts 61°
2026-04-11 12:10 40.79666 69.38097 36939 ft 466 kts 61°
2026-04-11 12:10 40.82397 69.45806 36939 ft 465 kts 62°
2026-04-11 12:11 40.85133 69.53564 36938 ft 466 kts 61°
2026-04-11 12:11 40.87871 69.61285 36939 ft 466 kts 61°
2026-04-11 12:12 40.90599 69.68999 36939 ft 465 kts 62°
2026-04-11 12:12 40.93287 69.76723 36939 ft 466 kts 62°
2026-04-11 12:13 40.96029 69.84487 36939 ft 466 kts 62°
2026-04-11 12:13 40.98759 69.92222 36938 ft 465 kts 62°
2026-04-11 12:14 41.01480 70.00022 36939 ft 467 kts 62°
2026-04-11 12:14 41.04181 70.07836 36938 ft 469 kts 62°
2026-04-11 12:15 41.06890 70.15648 36938 ft 469 kts 61°
2026-04-11 12:15 41.09287 70.23649 36938 ft 473 kts 70°
2026-04-11 12:16 41.10394 70.32299 36940 ft 479 kts 82°
2026-04-11 12:16 41.11005 70.41084 36939 ft 480 kts 81°
2026-04-11 12:17 41.11688 70.49875 36939 ft 480 kts 81°
2026-04-11 12:17 41.12328 70.58660 37188 ft 474 kts 81°
2026-04-11 12:18 41.12956 70.67400 37165 ft 478 kts 82°
2026-04-11 12:19 41.13880 70.80547 37155 ft 481 kts 82°
2026-04-11 12:19 41.14489 70.89378 37156 ft 479 kts 83°
2026-04-11 12:20 41.15100 70.98128 37157 ft 476 kts 84°
2026-04-11 12:20 41.15737 71.06816 37162 ft 470 kts 84°
2026-04-11 12:21 41.16330 71.15389 37171 ft 470 kts 85°
2026-04-11 12:21 41.16905 71.24023 37178 ft 472 kts 85°
2026-04-11 12:22 41.17450 71.32680 37182 ft 473 kts 85°
2026-04-11 12:22 41.18015 71.41334 37182 ft 472 kts 85°
2026-04-11 12:23 41.18573 71.50043 37181 ft 472 kts 85°
2026-04-11 12:23 41.19118 71.58672 37182 ft 473 kts 84°
2026-04-11 12:24 41.19668 71.67373 37181 ft 472 kts 85°
2026-04-11 12:24 41.20191 71.76030 37182 ft 471 kts 86°
2026-04-11 12:25 41.20708 71.84663 37182 ft 472 kts 85°
2026-04-11 12:25 41.21207 71.93293 37181 ft 471 kts 85°
2026-04-11 12:26 41.21716 72.01977 37183 ft 472 kts 85°
2026-04-11 12:26 41.22218 72.10633 37181 ft 472 kts 85°
2026-04-11 12:27 41.22718 72.19277 37182 ft 471 kts 85°
2026-04-11 12:27 41.23203 72.27946 37183 ft 471 kts 85°
2026-04-11 12:28 41.23660 72.36587 37182 ft 472 kts 86°
2026-04-11 12:28 41.24070 72.45275 37181 ft 471 kts 86°
2026-04-11 12:29 41.24504 72.53969 37181 ft 473 kts 86°
2026-04-11 12:29 41.24938 72.62632 37181 ft 472 kts 85°
2026-04-11 12:30 41.25391 72.71323 37181 ft 471 kts 86°
2026-04-11 12:30 41.25866 72.79985 37181 ft 471 kts 85°
2026-04-11 12:31 41.26369 72.88621 37181 ft 472 kts 86°
2026-04-11 12:31 41.26837 72.97309 37182 ft 471 kts 86°
2026-04-11 12:32 41.27293 73.05957 37182 ft 471 kts 86°
2026-04-11 12:32 41.27725 73.14645 37182 ft 472 kts 86°
2026-04-11 12:33 41.28156 73.23342 37183 ft 472 kts 86°
2026-04-11 12:33 41.28522 73.32018 37183 ft 472 kts 87°
2026-04-11 12:34 41.28854 73.40659 37181 ft 472 kts 86°
2026-04-11 12:34 41.29224 73.49382 37181 ft 470 kts 86°
2026-04-11 12:35 41.29592 73.58021 37182 ft 471 kts 86°
2026-04-11 12:35 41.30000 73.66706 37182 ft 472 kts 86°
2026-04-11 12:36 41.30454 73.75377 37182 ft 471 kts 86°
2026-04-11 12:36 41.30868 73.84075 37182 ft 472 kts 86°
2026-04-11 12:37 41.31247 73.92746 37182 ft 472 kts 87°
2026-04-11 12:37 41.31633 74.01446 37182 ft 472 kts 86°
2026-04-11 12:38 41.32219 74.10097 37182 ft 470 kts 84°
2026-04-11 12:38 41.32899 74.18767 37182 ft 471 kts 84°
2026-04-11 12:39 41.33512 74.27423 37184 ft 471 kts 84°
2026-04-11 12:39 41.34133 74.36089 37190 ft 471 kts 84°
2026-04-11 12:40 41.34758 74.44740 37196 ft 473 kts 84°
2026-04-11 12:40 41.35354 74.53391 37202 ft 472 kts 84°
2026-04-11 12:41 41.35934 74.62094 37207 ft 472 kts 84°
2026-04-11 12:41 41.36525 74.70756 37210 ft 471 kts 85°
2026-04-11 12:42 41.37100 74.79425 37209 ft 471 kts 85°
2026-04-11 12:42 41.37678 74.88081 37208 ft 471 kts 85°
2026-04-11 12:43 41.38508 75.01056 37209 ft 470 kts 85°
2026-04-11 12:43 41.39073 75.09729 37209 ft 471 kts 85°
2026-04-11 12:44 41.39607 75.18359 37209 ft 470 kts 84°
2026-04-11 12:44 41.40162 75.27039 37218 ft 472 kts 85°
2026-04-11 12:45 41.40706 75.35709 37236 ft 471 kts 85°
2026-04-11 12:45 41.41225 75.44398 37270 ft 471 kts 85°
2026-04-11 12:46 41.41690 75.53110 37299 ft 472 kts 85°
2026-04-11 12:46 41.42145 75.61802 37317 ft 472 kts 85°
2026-04-11 12:47 41.42628 75.70476 37317 ft 470 kts 85°
2026-04-11 12:47 41.43193 75.79140 37317 ft 471 kts 85°
2026-04-11 12:48 41.43734 75.87840 37316 ft 471 kts 85°
2026-04-11 12:48 41.44250 75.96480 37317 ft 470 kts 85°
2026-04-11 12:49 41.44739 76.05152 37318 ft 471 kts 85°
2026-04-11 12:49 41.45222 76.13838 37318 ft 471 kts 85°
2026-04-11 12:50 41.45693 76.22522 37318 ft 472 kts 85°
2026-04-11 12:50 41.46153 76.31224 37316 ft 471 kts 85°
2026-04-11 12:51 41.46607 76.39896 37317 ft 471 kts 85°
2026-04-11 12:51 41.47064 76.48597 37317 ft 471 kts 85°
2026-04-11 12:52 41.47498 76.57275 37316 ft 472 kts 85°
2026-04-11 12:52 41.47939 76.65975 37317 ft 471 kts 86°
2026-04-11 12:53 41.48366 76.74675 37317 ft 471 kts 86°
2026-04-11 12:53 41.48783 76.83402 37316 ft 472 kts 86°
2026-04-11 12:54 41.49209 76.92071 37317 ft 470 kts 86°
2026-04-11 12:54 41.49588 77.00774 37318 ft 470 kts 86°
2026-04-11 12:55 41.49927 77.09392 37317 ft 468 kts 86°
2026-04-11 12:55 41.50297 77.18034 37318 ft 470 kts 86°
2026-04-11 12:56 41.50668 77.26714 37316 ft 469 kts 85°
2026-04-11 12:56 41.51053 77.35384 37316 ft 469 kts 85°
2026-04-11 12:57 41.51424 77.44038 37317 ft 469 kts 85°
2026-04-11 12:57 41.51791 77.52711 37317 ft 469 kts 86°
2026-04-11 12:58 41.52155 77.61395 37317 ft 468 kts 85°
2026-04-11 12:58 41.52522 77.70045 37317 ft 469 kts 86°
2026-04-11 12:59 41.52870 77.78711 37317 ft 471 kts 86°
2026-04-11 12:59 41.53209 77.87437 37317 ft 469 kts 86°
2026-04-11 13:00 41.53543 77.96081 37317 ft 469 kts 86°
2026-04-11 13:00 41.53879 78.04725 37317 ft 469 kts 86°
2026-04-11 13:01 41.54375 78.17734 37316 ft 469 kts 86°
2026-04-11 13:02 41.54681 78.26386 37317 ft 469 kts 86°
2026-04-11 13:02 41.54984 78.35097 37316 ft 468 kts 86°
2026-04-11 13:03 41.55283 78.43758 37318 ft 469 kts 86°
2026-04-11 13:03 41.55432 78.48101 37111 ft 475 kts 86°
2026-04-11 13:03 41.55588 78.52457 36973 ft 469 kts 86°
2026-04-11 13:04 41.55876 78.61054 36966 ft 464 kts 86°
2026-04-11 13:04 41.56141 78.69688 36968 ft 468 kts 87°
2026-04-11 13:05 41.56421 78.78354 36965 ft 470 kts 87°
2026-04-11 13:05 41.56718 78.87041 36964 ft 469 kts 85°
2026-04-11 13:06 41.57175 78.95709 36965 ft 467 kts 85°
2026-04-11 13:06 41.57599 79.04378 36966 ft 468 kts 85°
2026-04-11 13:07 41.57992 79.13010 36965 ft 466 kts 85°
2026-04-11 13:07 41.58363 79.21621 36967 ft 466 kts 85°
2026-04-11 13:08 41.58717 79.30235 36966 ft 466 kts 85°
2026-04-11 13:08 41.59079 79.38835 36967 ft 466 kts 85°
2026-04-11 13:09 41.59437 79.47467 36967 ft 466 kts 85°
2026-04-11 13:09 41.59763 79.56129 36966 ft 466 kts 85°
2026-04-11 13:10 41.60078 79.64690 36966 ft 465 kts 85°
2026-04-11 13:10 41.60395 79.73332 36965 ft 466 kts 85°
2026-04-11 13:11 41.60716 79.81955 36967 ft 467 kts 85°
2026-04-11 13:11 41.61025 79.90604 36965 ft 466 kts 85°
2026-04-11 13:12 41.61337 79.99196 36966 ft 464 kts 85°
2026-04-11 13:12 41.61635 80.07817 36966 ft 464 kts 86°
2026-04-11 13:13 41.61870 80.16421 36967 ft 466 kts 86°
2026-04-11 13:13 41.62085 80.25071 36965 ft 466 kts 86°
2026-04-11 13:14 41.62333 80.33655 36965 ft 465 kts 85°
2026-04-11 13:14 41.62654 80.42298 36965 ft 467 kts 85°
2026-04-11 13:15 41.62964 80.50932 36965 ft 465 kts 85°
2026-04-11 13:15 41.63209 80.59548 36967 ft 466 kts 86°
2026-04-11 13:16 41.63383 80.68164 36967 ft 466 kts 87°
2026-04-11 13:16 41.63583 80.76821 36966 ft 465 kts 86°
2026-04-11 13:17 41.63858 80.85418 36968 ft 465 kts 86°
2026-04-11 13:17 41.64149 80.94016 36966 ft 464 kts 85°
2026-04-11 13:18 41.64398 81.02661 36966 ft 466 kts 85°
2026-04-11 13:18 41.64621 81.11270 37161 ft 459 kts 84°
2026-04-11 13:19 41.64825 81.19785 37237 ft 462 kts 84°
2026-04-11 13:19 41.65039 81.28339 37238 ft 465 kts 84°
2026-04-11 13:20 41.65247 81.37000 37236 ft 465 kts 84°
2026-04-11 13:20 41.65441 81.45552 37236 ft 463 kts 84°
2026-04-11 13:21 41.65646 81.54153 37236 ft 463 kts 84°
2026-04-11 13:21 41.65789 81.62747 37236 ft 465 kts 85°
2026-04-11 13:22 41.65910 81.71350 37235 ft 464 kts 85°
2026-04-11 13:22 41.66039 81.80010 37236 ft 465 kts 85°
2026-04-11 13:23 41.66220 81.88562 37236 ft 464 kts 85°
2026-04-11 13:23 41.66451 81.97166 37235 ft 464 kts 84°
2026-04-11 13:24 41.66622 82.05780 37235 ft 463 kts 85°
2026-04-11 13:24 41.66784 82.14349 37237 ft 462 kts 84°
2026-04-11 13:25 41.66930 82.22914 37235 ft 464 kts 85°
2026-04-11 13:25 41.67007 82.31536 37235 ft 465 kts 85°
2026-04-11 13:26 41.67078 82.40162 37236 ft 464 kts 85°
2026-04-11 13:26 41.67190 82.48778 37234 ft 464 kts 85°
2026-04-11 13:27 41.67305 82.57364 37234 ft 463 kts 85°
2026-04-11 13:27 41.67396 82.65974 37206 ft 463 kts 86°
2026-04-11 13:28 41.67486 82.74576 37178 ft 463 kts 86°
2026-04-11 13:28 41.68028 82.83041 37156 ft 455 kts 68°
2026-04-11 13:29 41.70781 82.90540 37155 ft 447 kts 54°
2026-04-11 13:29 41.74025 82.97583 37153 ft 447 kts 54°
2026-04-11 13:30 41.77252 83.04645 37155 ft 446 kts 54°
2026-04-11 13:30 41.80493 83.11726 37155 ft 447 kts 54°
2026-04-11 13:31 41.83738 83.18799 37155 ft 447 kts 54°
2026-04-11 13:31 41.87024 83.25849 37154 ft 446 kts 53°
2026-04-11 13:32 41.90308 83.32859 37156 ft 447 kts 53°
2026-04-11 13:32 41.93591 83.39941 37155 ft 446 kts 54°
2026-04-11 13:33 41.96811 83.47012 37155 ft 447 kts 54°
2026-04-11 13:33 42.00070 83.54093 37155 ft 447 kts 53°
2026-04-11 13:34 42.03338 83.61159 37154 ft 446 kts 54°
2026-04-11 13:34 42.06580 83.68280 37154 ft 448 kts 55°
2026-04-11 13:35 42.09806 83.75413 37155 ft 447 kts 54°
2026-04-11 13:35 42.13042 83.82541 37153 ft 446 kts 54°
2026-04-11 13:36 42.16281 83.89659 37155 ft 446 kts 54°
2026-04-11 13:36 42.19529 83.96738 37154 ft 446 kts 54°
2026-04-11 13:37 42.22841 84.03807 37156 ft 444 kts 51°
2026-04-11 13:37 42.26373 84.10613 37155 ft 444 kts 51°
2026-04-11 13:38 42.29863 84.17481 37155 ft 445 kts 51°
2026-04-11 13:38 42.33323 84.24329 37155 ft 443 kts 51°
2026-04-11 13:39 42.36816 84.31224 37155 ft 444 kts 51°
2026-04-11 13:39 42.40283 84.38085 37155 ft 445 kts 51°
2026-04-11 13:40 42.43770 84.44978 37155 ft 444 kts 51°
2026-04-11 13:40 42.47236 84.51856 37154 ft 445 kts 51°
2026-04-11 13:41 42.50684 84.58813 37155 ft 445 kts 52°
2026-04-11 13:41 42.54103 84.65723 37154 ft 445 kts 52°
2026-04-11 13:42 42.57564 84.72694 37155 ft 445 kts 52°
2026-04-11 13:42 42.61012 84.79591 37154 ft 444 kts 52°
2026-04-11 13:43 42.64484 84.86551 37156 ft 445 kts 52°
2026-04-11 13:43 42.67933 84.93497 37155 ft 445 kts 52°
2026-04-11 13:44 42.71339 85.00450 37156 ft 446 kts 52°
2026-04-11 13:44 42.74797 85.07509 37154 ft 450 kts 52°
2026-04-11 13:45 42.78288 85.14591 37154 ft 454 kts 53°
2026-04-11 13:45 42.81823 85.21750 37155 ft 458 kts 53°
2026-04-11 13:46 42.85342 85.28967 37155 ft 458 kts 53°
2026-04-11 13:46 42.88822 85.36152 37155 ft 456 kts 53°
2026-04-11 13:47 42.92303 85.43335 37154 ft 456 kts 53°
2026-04-11 13:47 42.95819 85.50531 37154 ft 455 kts 53°
2026-04-11 13:48 42.99313 85.57725 37154 ft 455 kts 53°
2026-04-11 13:48 43.02767 85.64913 37154 ft 453 kts 53°
2026-04-11 13:49 43.06207 85.72057 37155 ft 452 kts 53°
2026-04-11 13:49 43.09623 85.79147 37154 ft 453 kts 53°
2026-04-11 13:50 43.13083 85.86334 37155 ft 453 kts 53°
2026-04-11 13:50 43.16512 85.93530 37155 ft 453 kts 54°
2026-04-11 13:51 43.19926 86.00742 37155 ft 452 kts 53°
2026-04-11 13:51 43.23392 86.07928 37084 ft 451 kts 53°
2026-04-11 13:51 43.25114 86.11478 36502 ft 449 kts 53°
2026-04-11 13:52 43.26823 86.14993 35908 ft 447 kts 53°
2026-04-11 13:52 43.28467 86.18578 35384 ft 445 kts 57°
2026-04-11 13:52 43.29854 86.22385 34834 ft 444 kts 64°
2026-04-11 13:52 43.30988 86.26319 34289 ft 442 kts 66°
2026-04-11 13:53 43.32077 86.30190 33754 ft 439 kts 65°
2026-04-11 13:53 43.33209 86.34080 33212 ft 435 kts 65°
2026-04-11 13:53 43.34327 86.37901 32675 ft 432 kts 65°
2026-04-11 13:53 43.35431 86.41718 32141 ft 429 kts 65°
2026-04-11 13:54 43.36503 86.45479 31615 ft 427 kts 66°
2026-04-11 13:54 43.37570 86.49268 31083 ft 424 kts 66°
2026-04-11 13:54 43.38631 86.53034 30550 ft 421 kts 66°
2026-04-11 13:54 43.39681 86.56739 30028 ft 418 kts 66°
2026-04-11 13:55 43.40736 86.60468 29500 ft 415 kts 66°
2026-04-11 13:55 43.41767 86.64122 28981 ft 412 kts 65°
2026-04-11 13:55 43.42891 86.67717 28448 ft 408 kts 61°
2026-04-11 13:55 43.44263 86.71043 27941 ft 402 kts 54°
2026-04-11 13:56 43.45803 86.74218 27432 ft 398 kts 53°
2026-04-11 13:56 43.47322 86.77375 26929 ft 395 kts 54°
2026-04-11 13:56 43.48816 86.80544 26425 ft 392 kts 54°
2026-04-11 13:56 43.50304 86.83682 25926 ft 389 kts 54°
2026-04-11 13:57 43.51774 86.86755 25436 ft 386 kts 54°
2026-04-11 13:57 43.53226 86.89790 24950 ft 383 kts 54°
2026-04-11 13:57 43.54681 86.92853 24460 ft 380 kts 54°
2026-04-11 13:57 43.56110 86.95869 23977 ft 377 kts 54°
2026-04-11 13:58 43.57543 86.98888 23494 ft 374 kts 54°
2026-04-11 13:58 43.58955 87.01859 23017 ft 371 kts 54°
2026-04-11 13:58 43.60350 87.04800 22545 ft 368 kts 54°
2026-04-11 13:58 43.61747 87.07746 22073 ft 365 kts 54°
2026-04-11 13:59 43.63132 87.10671 21560 ft 364 kts 54°
2026-04-11 13:59 43.64501 87.13576 21067 ft 361 kts 54°
2026-04-11 13:59 43.65862 87.16468 20598 ft 358 kts 54°
2026-04-11 13:59 43.67213 87.19340 20137 ft 355 kts 54°
2026-04-11 14:00 43.68547 87.22178 19681 ft 353 kts 54°
2026-04-11 14:00 43.69857 87.24969 19233 ft 350 kts 54°
2026-04-11 14:00 43.72464 87.30527 18391 ft 342 kts 54°
2026-04-11 14:01 43.73759 87.33292 17950 ft 339 kts 54°
2026-04-11 14:01 43.75029 87.36007 17514 ft 337 kts 54°
2026-04-11 14:01 43.76304 87.38733 17076 ft 334 kts 54°
2026-04-11 14:01 43.77547 87.41395 16646 ft 331 kts 54°
2026-04-11 14:02 43.78877 87.43973 16197 ft 327 kts 44°
2026-04-11 14:02 43.80646 87.45831 15782 ft 317 kts 21°
2026-04-11 14:02 43.82735 87.46606 15383 ft 308 kts
2026-04-11 14:02 43.84827 87.46823 14980 ft 305 kts
2026-04-11 14:03 43.86939 87.47051 14578 ft 303 kts
2026-04-11 14:03 43.89025 87.47292 14184 ft 300 kts
2026-04-11 14:03 43.91089 87.47508 13793 ft 297 kts
2026-04-11 14:03 43.93137 87.47716 13406 ft 294 kts
2026-04-11 14:04 43.95143 87.47920 13027 ft 292 kts
2026-04-11 14:04 43.97169 87.48122 12615 ft 292 kts
2026-04-11 14:04 43.99171 87.48325 12467 ft 281 kts
2026-04-11 14:04 44.01023 87.48895 12368 ft 272 kts 23°